Wind_Speed
12 11 11 11 10 10 10 10 9 9 9 9 8 8 8 7 7 6 7 7 7 7 7 7 7 7 8 8 8 8 9 9 10 10 10 11 11 12 12 11 12 11 12
12 12 11 11 11 11 11 10 10 9 9 9 9 8 8 8 8 8 8 8 8 8 7 7 8 8 8 9 9 9 9 9 10 10 10 11 11 11 12 12 13 12 12
13 12 12 12 12 13 12 12 11 10 10 10 10 9 9 8 8 9 9 9 9 9 9 9 8 8 9 9 10 10 10 11 11 11 11 11 11 11 12 12 12 12 12
15 14 13 13 13 13 13 13 12 12 12 12 11 11 9 9 9 9 10 10 10 9 10 10 10 9 10 10 11 11 11 11 12 12 12 12 12 12 12 12 12 13 13
15 14 14 14 14 14 14 14 14 13 13 13 13 12 11 10 10 10 11 11 10 10 11 10 11 10 10 11 11 11 12 12 13 13 13 13 13 12 12 12 12 12 13
16 15 15 15 15 15 15 15 15 14 15 14 14 13 12 12 11 11 12 12 12 12 12 11 11 11 11 11 11 12 13 13 13 14 14 14 13 13 13 13 13 13 14
17 16 16 16 16 15 15 16 16 16 15 15 15 15 15 14 13 13 13 13 13 12 12 12 12 12 12 12 12 13 14 14 14 14 14 14 14 15 14 14 15 14 14
17 16 16 16 16 16 16 17 16 16 16 17 17 16 16 15 14 14 14 14 14 13 12 13 13 13 13 13 13 14 14 15 15 15 15 15 15 16 16 15 16 16 16
18 17 17 17 17 17 17 17 17 17 18 18 17 17 16 14 14 14 14 14 14 13 13 13 14 14 15 15 15 15 15 15 15 16 16 16 16 16 17 17 16 16 16
18 19 19 19 18 18 17 17 17 18 18 18 18 17 17 16 15 14 14 14 14 14 14 14 14 15 15 15 15 16 16 15 16 16 16 16 16 17 17 17 17 17 17
19 19 19 19 19 18 17 17 17 17 17 18 18 17 17 16 15 14 14 13 14 14 14 15 15 15 15 15 16 16 16 16 17 16 17 17 17 17 17 17 18 18 18
19 19 20 20 19 18 17 17 17 17 17 18 17 17 17 16 15 15 14 14 14 14 14 15 16 16 16 16 17 17 17 17 17 17 16 17 17 17 17 17 18 18 18
19 20 20 20 20 19 19 18 17 17 17 17 17 17 18 17 17 16 16 16 15 15 15 15 16 16 16 17 18 17 17 17 17 17 17 17 17 17 17 18 18 19 19
19 19 20 20 20 20 19 19 18 18 17 17 17 17 18 19 19 18 17 16 16 16 16 16 17 17 17 18 18 17 17 16 17 18 18 17 17 17 18 18 18 18 18
19 20 19 19 20 20 20 20 20 19 17 18 18 18 19 19 20 20 19 18 18 18 17 17 17 18 18 17 17 18 17 18 18 18 17 17 17 17 18 17 18 18 17
20 19 19 19 20 21 21 21 20 20 19 18 19 19 20 20 20 20 20 19 19 19 19 19 19 19 19 18 18 18 18 19 18 18 18 17 17 17 17 17 18 18 18
20 19 18 18 19 20 21 21 21 20 20 20 20 20 20 21 21 22 21 21 20 20 20 20 20 20 20 20 19 19 20 19 19 19 19 19 18 18 17 17 17 18 18
20 19 19 19 19 20 20 20 20 21 21 21 21 21 22 22 22 22 22 21 21 21 21 21 21 21 20 20 20 20 20 20 19 19 19 19 19 19 19 19 18 18 19
20 20 20 20 20 21 21 21 22 21 21 22 22 21 21 22 22 22 22 22 21 21 21 21 21 20 19 19 20 20 20 20 20 20 20 20 20 19 19 20 19 19 20
22 22 21 20 20 21 21 22 22 23 22 21 21 21 21 21 21 22 21 21 21 21 21 21 21 20 20 20 21 21 21 21 20 20 21 21 21 20 21 21 21 21 21
20 21 21 21 21 21 21 22 22 22 21 21 20 21 20 22 22 22 22 21 22 22 22 22 21 22 22 22 21 21 22 22 21 21 21 21 20 21 22 22 21 21 21
21 21 20 20 20 20 20 21 22 22 22 21 21 22 21 22 23 23 23 23 23 23 23 23 23 23 23 23 22 22 22 22 22 23 22 22 21 22 22 22 22 22 22
22 22 22 21 21 21 21 22 22 22 23 23 23 23 23 24 24 24 25 25 25 24 25 24 24 24 24 24 23 23 22 22 23 23 23 23 23 23 23 23 23 23 22
22 22 22 21 21 22 21 21 22 22 23 23 24 24 24 24 24 24 25 25 25 25 25 25 25 25 25 24 24 24 24 24 23 24 24 24 24 24 23 23 22 22 22
22 22 22 22 22 22 22 22 22 21 22 23 23 23 24 24 25 25 25 25 25 25 25 26 26 26 25 24 25 25 25 25 24 24 25 25 24 23 23 23 22 23 23
22 22 22 22 22 22 22 22 22 22 22 22 23 24 25 25 26 26 26 26 25 26 26 26 26 26 26 25 25 25 25 25 25 24 25 25 24 23 23 23 23 23 23
Wind_Direction
275 271 269 267 263 260 263 263 259 259 260 263 263 265 266 270 268 273 279 278 282 280 277 271 263 265 272 271 266 263 263 267 268 266 265 264 264 264 263 264 261 260 262
273 269 267 266 264 260 260 260 260 261 262 264 263 264 268 271 268 270 275 280 283 281 278 277 269 270 274 274 268 268 268 268 272 270 269 268 266 265 264 266 265 263 262
276 272 269 263 264 259 259 259 260 260 261 262 261 262 264 267 271 270 272 276 280 275 274 276 276 274 276 275 272 270 271 272 273 274 274 275 272 270 267 267 268 264 261
277 273 269 265 265 260 259 258 257 258 258 260 259 260 262 266 272 272 272 277 278 274 271 273 273 276 276 276 276 273 273 276 279 278 277 276 274 272 269 269 271 269 267
277 274 268 266 264 263 259 258 258 259 257 258 259 261 261 263 268 274 275 275 276 274 272 273 272 274 276 277 277 276 276 279 281 280 277 274 274 273 270 270 271 270 271
275 274 270 266 266 263 260 258 258 258 257 258 260 260 261 261 266 270 274 275 274 276 272 270 270 270 272 276 280 280 279 279 279 279 278 275 273 270 269 270 269 269 271
274 272 267 266 264 265 265 260 258 259 258 258 257 257 258 260 265 268 272 273 272 272 271 269 271 274 272 276 281 281 280 279 276 276 276 276 274 271 269 270 269 269 270
272 270 266 267 265 265 268 261 258 257 257 257 256 256 258 260 260 263 268 271 271 272 273 272 271 274 275 277 281 281 281 279 277 276 275 276 274 273 271 273 273 270 268
270 268 267 268 268 266 266 262 258 258 256 257 257 259 261 262 259 262 263 267 268 269 270 275 274 273 274 277 280 281 281 278 277 279 275 276 275 273 274 274 274 270 270
270 268 268 267 266 267 264 262 261 260 256 256 256 258 260 258 260 262 262 263 265 266 268 273 277 278 278 279 280 282 281 279 278 280 279 277 276 275 274 273 272 272 272
271 269 266 266 266 264 262 261 260 261 259 258 257 257 255 255 262 262 262 266 266 267 269 271 274 278 280 280 281 282 280 279 279 278 277 276 277 277 275 273 272 274 273
272 269 268 265 265 262 261 259 259 260 260 262 260 255 253 254 259 262 265 267 267 269 271 272 275 278 280 282 281 281 279 279 279 279 277 277 278 277 277 274 275 274 275
272 270 266 264 263 261 261 260 260 260 260 262 261 256 251 252 257 261 266 268 268 271 273 275 278 280 281 283 284 282 281 278 278 280 279 278 276 275 275 275 277 277 278
274 272 269 264 262 261 260 260 262 261 258 261 260 255 253 254 255 258 261 265 267 271 274 276 278 279 281 283 283 282 282 280 279 280 278 277 277 276 276 276 277 279 279
277 273 270 266 262 260 259 261 262 262 260 261 259 255 254 255 256 257 259 263 267 271 274 276 278 281 281 280 279 279 282 285 283 279 278 276 275 275 275 275 277 280 278
278 273 268 266 261 258 258 260 262 263 263 261 257 255 255 256 255 257 260 263 267 270 272 275 276 279 281 280 279 278 281 282 284 281 279 278 277 276 274 275 277 279 279
275 271 268 264 263 261 260 261 262 263 263 261 257 257 258 258 257 257 259 263 267 272 275 276 277 278 279 280 280 279 279 279 280 281 281 280 280 279 277 278 279 281 283
270 267 266 265 264 263 263 263 264 264 263 263 261 259 260 258 258 257 259 263 268 272 275 278 279 279 279 280 280 279 278 278 279 279 280 281 279 278 278 278 280 281 282
268 267 267 267 267 267 264 261 263 264 263 264 263 262 261 257 256 256 259 263 268 271 274 278 280 281 281 280 279 279 278 280 280 280 280 281 280 277 276 277 279 279 280
268 266 266 266 267 266 263 262 263 263 263 262 262 262 260 259 258 259 260 264 267 271 274 276 278 280 280 280 280 278 280 280 280 281 283 282 282 280 279 279 279 278 280
269 268 268 266 266 266 264 262 262 261 260 259 260 262 263 260 260 260 262 265 267 270 273 275 278 279 280 281 280 279 279 278 278 281 282 282 283 283 281 281 281 279 279
267 269 269 269 268 266 263 262 263 261 259 261 262 262 263 264 263 262 264 266 268 270 272 275 277 279 280 280 279 280 281 279 278 279 282 283 283 282 282 282 282 282 281
269 270 270 267 266 265 265 263 262 261 261 262 264 264 264 265 266 266 265 266 268 270 272 275 277 278 278 278 278 280 280 278 278 279 280 282 284 284 282 281 282 283 283
269 269 268 267 264 264 265 264 263 262 261 262 264 266 267 267 267 267 267 267 268 270 272 273 276 277 278 277 276 278 279 279 278 278 280 281 282 283 282 281 280 279 280
266 267 268 266 265 264 264 265 264 263 263 264 265 265 266 266 266 266 267 266 268 270 272 273 274 277 277 276 277 277 278 279 279 279 280 281 281 281 281 280 277 277 278
268 267 265 265 265 264 265 265 264 264 266 267 267 267 267 266 265 265 266 267 268 270 272 273 274 275 276 276 277 278 278 278 278 279 280 280 279 279 278 277 277 277 278
Height
5866 5865 5866 5866 5867 5867 5868 5868 5869 5870 5871 5871 5871 5872 5872 5873 5873 5874 5874 5874 5874 5874 5875 5875 5875 5876 5876 5876 5876 5877 5878 5878 5879 5879 5880 5880 5881 5881 5881 5882 5882 5883 5883
5863 5863 5864 5864 5865 5865 5866 5867 5867 5868 5869 5869 5870 5870 5871 5871 5872 5872 5873 5873 5873 5873 5873 5874 5874 5874 5874 5874 5874 5875 5876 5876 5877 5877 5877 5878 5878 5878 5879 5879 5880 5880 5881
5860 5861 5861 5862 5862 5863 5863 5864 5865 5866 5867 5868 5868 5869 5869 5869 5870 5870 5871 5871 5871 5871 5872 5872 5872 5872 5872 5872 5873 5873 5874 5874 5874 5875 5875 5875 5875 5876 5876 5877 5877 5877 5878
5857 5857 5858 5859 5859 5860 5861 5862 5863 5864 5865 5865 5866 5867 5867 5867 5868 5868 5869 5869 5869 5870 5870 5870 5870 5870 5870 5870 5871 5871 5871 5872 5872 5872 5872 5872 5872 5873 5873 5874 5874 5874 5875
5854 5854 5855 5856 5857 5858 5858 5859 5860 5861 5862 5863 5863 5864 5865 5865 5866 5866 5867 5867 5867 5868 5868 5868 5868 5868 5868 5868 5868 5868 5869 5869 5869 5869 5869 5869 5869 5870 5870 5870 5871 5871 5871
5851 5851 5852 5853 5854 5854 5855 5856 5857 5858 5859 5860 5861 5861 5862 5863 5863 5864 5864 5864 5865 5865 5865 5865 5865 5865 5865 5865 5865 5866 5866 5866 5866 5866 5866 5866 5866 5866 5866 5867 5867 5868 5868
5847 5848 5848 5849 5850 5851 5852 5853 5853 5854 5855 5856 5857 5858 5859 5859 5860 5861 5861 5861 5862 5862 5862 5862 5862 5862 5862 5863 5863 5863 5862 5862 5862 5863 5863 5863 5863 5863 5863 5864 5864 5864 5864
5844 5844 5845 5846 5847 5848 5848 5849 5850 5851 5852 5853 5853 5854 5855 5856 5856 5857 5857 5858 5858 5859 5859 5859 5859 5859 5859 5859 5859 5859 5859 5859 5859 5859 5859 5859 5859 5859 5860 5860 5860 5860 5860
5840 5840 5841 5842 5843 5844 5844 5845 5846 5847 5848 5849 5849 5850 5851 5852 5853 5853 5854 5854 5855 5855 5855 5856 5856 5856 5856 5856 5855 5855 5855 5855 5855 5855 5855 5855 5855 5855 5856 5856 5856 5856 5856
5836 5836 5837 5838 5839 5840 5840 5841 5842 5842 5843 5844 5845 5846 5847 5848 5849 5849 5850 5850 5851 5851 5852 5852 5852 5852 5852 5852 5852 5851 5851 5851 5851 5851 5851 5851 5851 5851 5851 5851 5852 5852 5852
5831 5832 5833 5833 5834 5835 5836 5836 5837 5838 5839 5840 5841 5842 5843 5844 5845 5846 5847 5847 5847 5848 5848 5848 5849 5848 5848 5848 5848 5847 5847 5847 5847 5847 5846 5846 5846 5847 5847 5847 5847 5847 5847
5827 5827 5828 5829 5830 5830 5831 5832 5833 5834 5834 5835 5836 5838 5839 5840 5841 5842 5843 5844 5844 5844 5844 5845 5845 5844 5844 5844 5844 5843 5843 5842 5842 5842 5842 5842 5842 5842 5842 5842 5842 5842 5842
5822 5823 5823 5824 5825 5825 5826 5828 5829 5830 5830 5831 5832 5833 5834 5836 5837 5838 5839 5840 5840 5841 5841 5841 5841 5840 5840 5840 5840 5839 5838 5838 5838 5837 5837 5837 5838 5838 5838 5838 5838 5838 5837
5818 5818 5818 5819 5820 5820 5822 5823 5824 5825 5826 5826 5827 5828 5830 5831 5833 5834 5835 5835 5836 5837 5837 5837 5836 5836 5836 5835 5835 5834 5834 5834 5833 5833 5833 5833 5833 5833 5833 5833 5833 5832 5832
5813 5813 5813 5814 5815 5816 5817 5818 5820 5820 5821 5821 5822 5823 5825 5826 5828 5829 5830 5831 5832 5832 5833 5833 5832 5832 5831 5831 5830 5830 5830 5830 5829 5828 5828 5828 5828 5828 5828 5828 5828 5827 5827
5809 5809 5809 5809 5810 5811 5812 5813 5814 5815 5816 5816 5817 5818 5820 5821 5823 5824 5825 5826 5826 5827 5828 5828 5828 5827 5827 5826 5826 5826 5825 5825 5824 5824 5824 5823 5823 5823 5823 5823 5822 5822 5821
5803 5804 5804 5804 5805 5806 5807 5808 5809 5809 5810 5811 5812 5813 5815 5816 5817 5819 5820 5820 5821 5821 5822 5822 5823 5822 5822 5821 5821 5821 5820 5820 5820 5819 5819 5819 5818 5818 5818 5817 5817 5817 5816
5798 5799 5799 5800 5800 5801 5802 5803 5804 5804 5805 5806 5807 5808 5809 5811 5812 5813 5814 5815 5816 5816 5817 5817 5817 5817 5817 5816 5816 5815 5815 5815 5815 5815 5814 5813 5813 5813 5812 5812 5812 5811 5811
5793 5794 5794 5795 5795 5796 5796 5798 5798 5799 5800 5801 5802 5803 5804 5805 5806 5807 5808 5809 5810 5810 5811 5811 5811 5811 5811 5811 5810 5810 5810 5810 5809 5809 5809 5808 5808 5807 5807 5807 5806 5806 5805
5788 5788 5789 5789 5790 5790 5791 5792 5793 5793 5794 5795 5796 5797 5798 5799 5800 5802 5802 5803 5804 5804 5805 5805 5805 5805 5805 5805 5805 5804 5804 5804 5804 5804 5803 5803 5802 5802 5801 5801 5801 5800 5800
5782 5782 5783 5783 5784 5784 5785 5786 5787 5787 5788 5789 5791 5792 5792 5793 5794 5795 5796 5797 5798 5798 5799 5799 5799 5799 5799 5799 5799 5798 5798 5798 5798 5798 5798 5797 5797 5796 5795 5795 5794 5794 5793
5776 5777 5777 5778 5778 5779 5779 5780 5781 5781 5782 5784 5785 5785 5786 5787 5788 5789 5790 5791 5791 5792 5792 5792 5792 5793 5793 5792 5792 5792 5792 5792 5792 5792 5791 5791 5791 5790 5789 5788 5788 5787 5787
5771 5771 5772 5772 5772 5773 5773 5774 5774 5775 5776 5777 5778 5779 5780 5781 5781 5782 5783 5784 5784 5785 5785 5786 5786 5786 5786 5785 5785 5785 5785 5785 5785 5785 5784 5784 5783 5783 5782 5781 5781 5780 5780
5765 5765 5765 5766 5767 5767 5767 5768 5768 5769 5769 5771 5771 5772 5773 5774 5774 5775 5776 5776 5777 5777 5778 5778 5778 5778 5778 5778 5778 5778 5778 5778 5778 5777 5777 5777 5776 5776 5775 5774 5774 5773 5773
5759 5759 5760 5760 5761 5761 5761 5762 5762 5763 5763 5764 5764 5765 5765 5766 5767 5768 5768 5769 5769 5770 5770 5770 5770 5770 5770 5770 5771 5771 5771 5771 5771 5770 5770 5770 5769 5769 5768 5767 5767 5766 5766
5753 5753 5753 5754 5754 5755 5755 5755 5756 5756 5757 5757 5757 5757 5758 5758 5759 5759 5760 5761 5762 5762 5762 5763 5763 5763 5763 5763 5763 5763 5763 5763 5763 5763 5762 5762 5762 5761 5761 5760 5760 5759 5759